Tracking 30744 objects as of 24-Jun-2025
HD Live streaming from Space Station
objects crossing your sky now

STARLINK-31152

Track STARLINK-31152 now!
10-day predictions
STARLINK-31152 is classified as:


NORAD ID: 58734
Int'l Code: 2024-005G
Perigee: 565.0 km
Apogee: 567.4 km
Inclination: 43.0 °
Period: 95.8 minutes
Semi major axis: 6937 km
RCS: Unknown
Launch date: January 7, 2024
Source: United States (US)
Launch site: AIR FORCE EASTERN TEST RANGE (AFETR)
Your satellite tracking list
Your tracking list is empty




NASA's NSSDC Master Catalog

Two Line Element Set (TLE):
1 58734U 24005G   25174.93450858  .00000483  00000-0  50821-4 0  9994
2 58734  43.0024 188.0089 0001746 288.4345  71.6307 15.02537218 81498
Source of the keplerian elements: AFSPC